Weather History for Williston, ND

Change the Weather History Date:

Sunday, November 18, 2012

  Actual Average Record
Temperature  
Mean Temperature 30 °F 26 °F  
Max Temperature 45 °F 36 °F 62 °F (1908)
Min Temperature 14 °F 15 °F -17 °F (1986)
Degree Days  
Heating Degree Days 35 39  
Month to date heating degree days 672 620  
Since 1 July heating degree days 1652 1647  
Cooling Degree Days 0 0  
Month to date cooling degree days 0 0  
Year to date cooling degree days 532 456  
Moisture  
Dew Point 27 °F    
Average Humidity 83    
Maximum Humidity 100    
Minimum Humidity 65    
Precipitation  
Precipitation 0.00 in 0.02 in 0.40 in (1941)
Month to date precipitation 1.46 0.43  
Year to date precipitation 12.60 13.53  
Snow  
Snow 0.00 in 0.20 in 5.20 in (1998)
Month to date snowfall 16.0 3.4  
Since 1 July snowfall 16.0 6.2  
Since 1 September snowfall 16.0 6.2  
Snow Depth 6.00 in    
Sea Level Pressure  
Sea Level Pressure 29.90 in    
Wind  
Wind Speed 3 mph (South)    
Max Wind Speed 14 mph    
Max Gust Speed 18 mph    
Visibility 9 miles    
Events      
T = Trace of Precipitation, MM = Missing Value Source: NWS Daily Summary

Daily Weather History Graph

Daily Weather History Graph

Search for Another Location

Airport:

Trip Planner

Search our weather history database for the weather conditions in past years. The results will help you decide how hot, cold, wet, or windy it might be!

Date:

Astronomy

Nov. 18, 2012 Rise Set
Actual Time 8:06 AM CST 5:12 PM CST
Civil Twilight 7:32 AM CST 5:46 PM CST
Nautical Twilight 6:54 AM CST 6:24 PM CST
Astronomical Twilight 6:17 AM CST 7:01 PM CST
Moon 12:30 PM CST (11/18) 10:41 PM CST (11/18)
Length of Visible Light 10h 14m
Length of Day
9h 05m
Waxing Crescent, 30% of the Moon is Illuminated
Nov 18
Waxing Crescent
Nov 20
First Quarter
Nov 28
Full
Dec 6
Last Quarter
Dec 13
New

Hourly Weather History & Observations

Time (CST) Temp. Windchill Dew Point Humidity Pressure Visibility Wind Dir Wind Speed Gust Speed Precip Events Conditions
12:52 AM 19.9 °F - 19.0 °F 96% 29.98 in 8.0 mi Calm Calm - N/A   Clear
1:52 AM 18.0 °F - 18.0 °F 100% 29.95 in 9.0 mi Calm Calm - N/A   Clear
2:52 AM 19.9 °F - 19.9 °F 100% 29.94 in 8.0 mi Calm Calm - N/A   Clear
3:52 AM 19.9 °F 14.9 °F 19.9 °F 100% 29.91 in 7.0 mi NE 3.5 mph - N/A   Clear
4:52 AM 18.0 °F 11.1 °F 17.1 °F 96% 29.90 in 7.0 mi NW 4.6 mph - N/A   Clear
5:52 AM 18.0 °F - 16.0 °F 92% 29.90 in 7.0 mi Calm Calm - N/A   Clear
6:52 AM 18.0 °F 12.7 °F 16.0 °F 92% 29.89 in 8.0 mi NNE 3.5 mph - N/A   Clear
7:52 AM 19.0 °F - 18.0 °F 96% 29.88 in 10.0 mi Calm Calm - N/A   Clear
8:52 AM 25.0 °F - 23.0 °F 92% 29.87 in 10.0 mi Calm Calm - N/A   Clear
9:52 AM 34.0 °F - 28.0 °F 79% 29.86 in 10.0 mi Calm Calm - N/A   Clear
10:52 AM 39.9 °F 34.5 °F 30.9 °F 70% 29.85 in 10.0 mi SE 8.1 mph - N/A   Clear
11:52 AM 42.1 °F 37.1 °F 32.0 °F 67% 29.83 in 10.0 mi SSE 8.1 mph - N/A   Clear
12:52 PM 42.1 °F 40.2 °F 33.1 °F 70% 29.81 in 10.0 mi ESE 3.5 mph - N/A   Clear
1:52 PM 44.1 °F 40.1 °F 33.1 °F 65% 29.81 in 10.0 mi South 6.9 mph - N/A   Clear
2:52 PM 44.1 °F 41.5 °F 34.0 °F 68% 29.81 in 10.0 mi SSW 4.6 mph - N/A   Clear
3:52 PM 42.1 °F 39.2 °F 34.0 °F 73% 29.83 in 10.0 mi SSW 4.6 mph - N/A   Clear
4:52 PM 37.9 °F 35.5 °F 33.1 °F 83% 29.88 in 10.0 mi WSW 3.5 mph - N/A   Scattered Clouds
5:52 PM 35.1 °F - 33.1 °F 92% 29.90 in 10.0 mi Calm Calm - N/A   Mostly Cloudy
6:52 PM 39.0 °F - 33.1 °F 79% 29.93 in 10.0 mi Calm Calm - N/A   Scattered Clouds
7:52 PM 37.0 °F 31.6 °F 30.9 °F 79% 29.94 in 10.0 mi West 6.9 mph - N/A   Overcast
8:52 PM 37.9 °F 30.9 °F 30.9 °F 76% 29.96 in 10.0 mi West 10.4 mph - N/A   Overcast
9:52 PM 37.0 °F - 30.0 °F 76% 29.97 in 10.0 mi Calm Calm - N/A   Overcast
10:52 PM 37.0 °F 34.5 °F 30.0 °F 76% 29.99 in 10.0 mi Variable 3.5 mph - N/A   Mostly Cloudy
11:52 PM 37.0 °F 33.3 °F 28.9 °F 73% 30.00 in 10.0 mi SSE 4.6 mph - N/A   Mostly Cloudy